Location: Unspecified
(51.0950°N, 12.9690°E)
Time: 08:27:00
(UTC+00:00)

PCSat - Pass Details

Date: 19 April 2024
Orbit: 783 x 792 km, 67.1° (Epoch: 24 May)

Event Time Altitude Azimuth Distance (km) Brightness Sun altitude
Rises 18:59:50 0° 205° (SSW) 3,267 12.7 -7.7°
Reaches altitude 10° 19:02:15 10° 202° (SSW) 2,344 12.0 -8.1°
Maximum altitude 19:07:34 66° 122° (ESE) 864 9.5 -8.8°
Drops below altitude 10° 19:12:56 10° 41° (NE) 2,365 11.9 -9.5°
Sets 19:15:23 0° 39° (NE) 3,299 12.7 -9.8°
